Showing default

HONGYAN 1, 43914

Orbit data source: Space-Track

HONGYAN 1, 43914 is a payload satellite owned by Yidong Tongxin (CN) in LEO that was launched on Sat, 29 Dec 2018 UTC via a CHANG ZHENG 2D/YZ-3 launch vehicle from the Jiuquan Satellite Launch Center, China (JSC). Payload-class satellites include a variety of spacecraft equipped with specific instruments for various scientific and technological missions. These include communications satellites like Starlink; space stations such as the ISS; scientific satellites like the Hubble; Earth observation satellites from companies like Planet Labs, Umbra, and HawkEye 360; GPS; miniature CubeSats for education and research; and military/defense satellites.

Loading next visibility...
Identifier
43914, 2018-112F
Orbit
LEO
Country
Flag of CNCN / PRC
Related business
Manufacturer
DFH Shenzhen
Mission
Operational Commercial Communications
Bus & Motor
HONGYAN, Unknown motor
Mass
~500 kg wet, ~500 kg dry
Launch date (UTC)
2018-12-29 (7 years ago)
Launch vehicle
CHANG ZHENG 2D/YZ-3
Launch site
Jiuquan Satellite Launch Center, China (JSC)
Object type
Payload
Rocket body
Debris
Shape & HBR
Box + 2 Pan, 2.5 m
Radar Cross Section
3.085 m², Medium (>0.1 m² and < 1m²)

Expand to show TLE details & history
Last TLE update: 15 hours ago

TLE from 15 hours ago
0 HONGYAN 1
1 43914U 18112F   25258.00126966 -.00000107  00000-0  38234-4 0  9999
2 43914  50.0066 169.1723 0006545 138.4504 221.6873 13.43803031329531
Epoch: 2025-09-15T00:01Z
TLE epoch observation values (Epoch: 2025-09-15T00:01:49.698Z)
Latitude
-0.00001°
Longitude
174.50302°
Altitude
1,099.31 km
Speed
7.302 km/s
True Right ascension
11h 16m 41s
True Declination
0° 00' 00"
Sunlit
Object was in daylight at epoch
Visualization orbit readout
Latitude
Unknown
Longitude
Unknown
Altitude
Unknown
Speed
Unknown
Apparent Right ascension
Unknown
Apparent Declination
Unknown
Sunlit
N/A
Visualization observer readout
Local Sidereal Time
07:38:33
Azimuth
Unknown
Elevation
Unknown
Doppler factor
Unknown
Orbital elements
Apogee altitude
1,100.747 km
Perigee altitude
1,090.964 km
Semi-major axis
7,473.992 km
Eccentricity
0.00065
Inclination
50.0066°
RAAN
169.1723°
Arg. of periapsis
138.4504°
True anomaly
221.63745°
Mean anomaly
221.6873°
Eccentric anomaly
221.66237°
Mean motion
3.35903 °/min
Orbital period
107.17 mins
BSTAR
0.000038234
Loading maneuver chart data...
Computing Atmospheric mass density...
Loading historical data...
Loading historical data...
Loading historical data...
Loading historical data...
Loading historical data...
Loading historical data...
Loading historical data...

Documentation

Showing up to 5 results
|